Index of /20260505/WXO-DD/model_rdps/10km/06/009
Name Last modified Size Description
Parent Directory -
20260505T06Z_MSC_RDPS_AbsoluteVorticity_IsbL-0250_RLatLon0.09_PT009H.grib2 2026-05-05 08:41 601K
20260505T06Z_MSC_RDPS_AbsoluteVorticity_IsbL-0500_RLatLon0.09_PT009H.grib2 2026-05-05 08:41 565K
20260505T06Z_MSC_RDPS_AbsoluteVorticity_IsbL-0700_RLatLon0.09_PT009H.grib2 2026-05-05 08:41 616K
20260505T06Z_MSC_RDPS_AbsoluteVorticity_IsbL-0850_RLatLon0.09_PT009H.grib2 2026-05-05 08:41 798K
20260505T06Z_MSC_RDPS_AirTemp_AGL-120m_RLatLon0.09_PT009H.grib2 2026-05-05 08:41 381K
20260505T06Z_MSC_RDPS_AirTemp_AGL-2m_RLatLon0.09_PT009H.grib2 2026-05-05 08:41 632K
20260505T06Z_MSC_RDPS_AirTemp_AGL-40m_RLatLon0.09_PT009H.grib2 2026-05-05 08:41 392K
20260505T06Z_MSC_RDPS_AirTemp_AGL-80m_RLatLon0.09_PT009H.grib2 2026-05-05 08:41 386K
20260505T06Z_MSC_RDPS_AirTemp_IsbL-0001_RLatLon0.09_PT009H.grib2 2026-05-05 08:41 322K
20260505T06Z_MSC_RDPS_AirTemp_IsbL-0005_RLatLon0.09_PT009H.grib2 2026-05-05 08:41 281K
20260505T06Z_MSC_RDPS_AirTemp_IsbL-0010_RLatLon0.09_PT009H.grib2 2026-05-05 08:41 380K
20260505T06Z_MSC_RDPS_AirTemp_IsbL-0020_RLatLon0.09_PT009H.grib2 2026-05-05 08:41 400K
20260505T06Z_MSC_RDPS_AirTemp_IsbL-0030_RLatLon0.09_PT009H.grib2 2026-05-05 08:41 329K
20260505T06Z_MSC_RDPS_AirTemp_IsbL-0050_RLatLon0.09_PT009H.grib2 2026-05-05 08:41 312K
20260505T06Z_MSC_RDPS_AirTemp_IsbL-0100_RLatLon0.09_PT009H.grib2 2026-05-05 08:41 423K
20260505T06Z_MSC_RDPS_AirTemp_IsbL-0150_RLatLon0.09_PT009H.grib2 2026-05-05 08:41 412K
20260505T06Z_MSC_RDPS_AirTemp_IsbL-0175_RLatLon0.09_PT009H.grib2 2026-05-05 08:41 405K
20260505T06Z_MSC_RDPS_AirTemp_IsbL-0200_RLatLon0.09_PT009H.grib2 2026-05-05 08:41 409K
20260505T06Z_MSC_RDPS_AirTemp_IsbL-0225_RLatLon0.09_PT009H.grib2 2026-05-05 08:41 407K
20260505T06Z_MSC_RDPS_AirTemp_IsbL-0250_RLatLon0.09_PT009H.grib2 2026-05-05 08:41 413K
20260505T06Z_MSC_RDPS_AirTemp_IsbL-0275_RLatLon0.09_PT009H.grib2 2026-05-05 08:41 399K
20260505T06Z_MSC_RDPS_AirTemp_IsbL-0300_RLatLon0.09_PT009H.grib2 2026-05-05 08:41 409K
20260505T06Z_MSC_RDPS_AirTemp_IsbL-0350_RLatLon0.09_PT009H.grib2 2026-05-05 08:41 425K
20260505T06Z_MSC_RDPS_AirTemp_IsbL-0400_RLatLon0.09_PT009H.grib2 2026-05-05 08:41 429K
20260505T06Z_MSC_RDPS_AirTemp_IsbL-0450_RLatLon0.09_PT009H.grib2 2026-05-05 08:41 437K
20260505T06Z_MSC_RDPS_AirTemp_IsbL-0500_RLatLon0.09_PT009H.grib2 2026-05-05 08:41 448K
20260505T06Z_MSC_RDPS_AirTemp_IsbL-0550_RLatLon0.09_PT009H.grib2 2026-05-05 08:41 464K
20260505T06Z_MSC_RDPS_AirTemp_IsbL-0600_RLatLon0.09_PT009H.grib2 2026-05-05 08:41 445K
20260505T06Z_MSC_RDPS_AirTemp_IsbL-0650_RLatLon0.09_PT009H.grib2 2026-05-05 08:41 461K
20260505T06Z_MSC_RDPS_AirTemp_IsbL-0700_RLatLon0.09_PT009H.grib2 2026-05-05 08:41 486K
20260505T06Z_MSC_RDPS_AirTemp_IsbL-0750_RLatLon0.09_PT009H.grib2 2026-05-05 08:41 529K
20260505T06Z_MSC_RDPS_AirTemp_IsbL-0800_RLatLon0.09_PT009H.grib2 2026-05-05 08:41 583K
20260505T06Z_MSC_RDPS_AirTemp_IsbL-0850_RLatLon0.09_PT009H.grib2 2026-05-05 08:41 644K
20260505T06Z_MSC_RDPS_AirTemp_IsbL-0875_RLatLon0.09_PT009H.grib2 2026-05-05 08:41 661K
20260505T06Z_MSC_RDPS_AirTemp_IsbL-0900_RLatLon0.09_PT009H.grib2 2026-05-05 08:41 672K
20260505T06Z_MSC_RDPS_AirTemp_IsbL-0925_RLatLon0.09_PT009H.grib2 2026-05-05 08:41 666K
20260505T06Z_MSC_RDPS_AirTemp_IsbL-0950_RLatLon0.09_PT009H.grib2 2026-05-05 08:41 532K
20260505T06Z_MSC_RDPS_AirTemp_IsbL-0970_RLatLon0.09_PT009H.grib2 2026-05-05 08:41 525K
20260505T06Z_MSC_RDPS_AirTemp_IsbL-0985_RLatLon0.09_PT009H.grib2 2026-05-05 08:41 513K
20260505T06Z_MSC_RDPS_AirTemp_IsbL-1000_RLatLon0.09_PT009H.grib2 2026-05-05 08:41 499K
20260505T06Z_MSC_RDPS_AirTemp_IsbL-1015_RLatLon0.09_PT009H.grib2 2026-05-05 08:41 505K
20260505T06Z_MSC_RDPS_Albedo_Sfc_RLatLon0.09_PT009H.grib2 2026-05-05 08:41 159K
20260505T06Z_MSC_RDPS_CAPE_Sfc_RLatLon0.09_PT009H.grib2 2026-05-05 08:41 1.8M
20260505T06Z_MSC_RDPS_CIN_Sfc_RLatLon0.09_PT009H.grib2 2026-05-05 08:41 1.2M
20260505T06Z_MSC_RDPS_CloudWater_EAtm_RLatLon0.09_PT009H.grib2 2026-05-05 08:41 220K
20260505T06Z_MSC_RDPS_ConvectivePrecip-Accum_Sfc_RLatLon0.09_PT009H.grib2 2026-05-05 08:41 521K
20260505T06Z_MSC_RDPS_DewPointDepression_AGL-2m_RLatLon0.09_PT009H.grib2 2026-05-05 08:41 418K
20260505T06Z_MSC_RDPS_DewPointDepression_IsbL-0001_RLatLon0.09_PT009H.grib2 2026-05-05 08:41 193
20260505T06Z_MSC_RDPS_DewPointDepression_IsbL-0005_RLatLon0.09_PT009H.grib2 2026-05-05 08:41 193
20260505T06Z_MSC_RDPS_DewPointDepression_IsbL-0010_RLatLon0.09_PT009H.grib2 2026-05-05 08:41 193
20260505T06Z_MSC_RDPS_DewPointDepression_IsbL-0020_RLatLon0.09_PT009H.grib2 2026-05-05 08:41 193
20260505T06Z_MSC_RDPS_DewPointDepression_IsbL-0030_RLatLon0.09_PT009H.grib2 2026-05-05 08:41 193
20260505T06Z_MSC_RDPS_DewPointDepression_IsbL-0050_RLatLon0.09_PT009H.grib2 2026-05-05 08:41 107K
20260505T06Z_MSC_RDPS_DewPointDepression_IsbL-0100_RLatLon0.09_PT009H.grib2 2026-05-05 08:41 115K
20260505T06Z_MSC_RDPS_DewPointDepression_IsbL-0150_RLatLon0.09_PT009H.grib2 2026-05-05 08:41 140K
20260505T06Z_MSC_RDPS_DewPointDepression_IsbL-0175_RLatLon0.09_PT009H.grib2 2026-05-05 08:41 176K
20260505T06Z_MSC_RDPS_DewPointDepression_IsbL-0200_RLatLon0.09_PT009H.grib2 2026-05-05 08:41 217K
20260505T06Z_MSC_RDPS_DewPointDepression_IsbL-0225_RLatLon0.09_PT009H.grib2 2026-05-05 08:41 249K
20260505T06Z_MSC_RDPS_DewPointDepression_IsbL-0250_RLatLon0.09_PT009H.grib2 2026-05-05 08:41 291K
20260505T06Z_MSC_RDPS_DewPointDepression_IsbL-0275_RLatLon0.09_PT009H.grib2 2026-05-05 08:41 304K
20260505T06Z_MSC_RDPS_DewPointDepression_IsbL-0300_RLatLon0.09_PT009H.grib2 2026-05-05 08:41 322K
20260505T06Z_MSC_RDPS_DewPointDepression_IsbL-0350_RLatLon0.09_PT009H.grib2 2026-05-05 08:41 330K
20260505T06Z_MSC_RDPS_DewPointDepression_IsbL-0400_RLatLon0.09_PT009H.grib2 2026-05-05 08:41 338K
20260505T06Z_MSC_RDPS_DewPointDepression_IsbL-0450_RLatLon0.09_PT009H.grib2 2026-05-05 08:41 343K
20260505T06Z_MSC_RDPS_DewPointDepression_IsbL-0500_RLatLon0.09_PT009H.grib2 2026-05-05 08:41 345K
20260505T06Z_MSC_RDPS_DewPointDepression_IsbL-0550_RLatLon0.09_PT009H.grib2 2026-05-05 08:41 355K
20260505T06Z_MSC_RDPS_DewPointDepression_IsbL-0600_RLatLon0.09_PT009H.grib2 2026-05-05 08:41 360K
20260505T06Z_MSC_RDPS_DewPointDepression_IsbL-0650_RLatLon0.09_PT009H.grib2 2026-05-05 08:41 364K
20260505T06Z_MSC_RDPS_DewPointDepression_IsbL-0700_RLatLon0.09_PT009H.grib2 2026-05-05 08:41 380K
20260505T06Z_MSC_RDPS_DewPointDepression_IsbL-0750_RLatLon0.09_PT009H.grib2 2026-05-05 08:41 403K
20260505T06Z_MSC_RDPS_DewPointDepression_IsbL-0800_RLatLon0.09_PT009H.grib2 2026-05-05 08:41 439K
20260505T06Z_MSC_RDPS_DewPointDepression_IsbL-0850_RLatLon0.09_PT009H.grib2 2026-05-05 08:41 475K
20260505T06Z_MSC_RDPS_DewPointDepression_IsbL-0875_RLatLon0.09_PT009H.grib2 2026-05-05 08:41 475K
20260505T06Z_MSC_RDPS_DewPointDepression_IsbL-0900_RLatLon0.09_PT009H.grib2 2026-05-05 08:41 465K
20260505T06Z_MSC_RDPS_DewPointDepression_IsbL-0925_RLatLon0.09_PT009H.grib2 2026-05-05 08:41 453K
20260505T06Z_MSC_RDPS_DewPointDepression_IsbL-0950_RLatLon0.09_PT009H.grib2 2026-05-05 08:41 447K
20260505T06Z_MSC_RDPS_DewPointDepression_IsbL-0970_RLatLon0.09_PT009H.grib2 2026-05-05 08:41 444K
20260505T06Z_MSC_RDPS_DewPointDepression_IsbL-0985_RLatLon0.09_PT009H.grib2 2026-05-05 08:41 443K
20260505T06Z_MSC_RDPS_DewPointDepression_IsbL-1000_RLatLon0.09_PT009H.grib2 2026-05-05 08:41 439K
20260505T06Z_MSC_RDPS_DewPointDepression_IsbL-1015_RLatLon0.09_PT009H.grib2 2026-05-05 08:41 431K
20260505T06Z_MSC_RDPS_DewPoint_AGL-2m_RLatLon0.09_PT009H.grib2 2026-05-05 08:41 400K
20260505T06Z_MSC_RDPS_DownwardLongwaveRadiationFlux-Accum_Sfc_RLatLon0.09_PT009H.grib2 2026-05-05 08:41 436K
20260505T06Z_MSC_RDPS_DownwardShortwaveRadiationFlux-Accum_NTAtm_RLatLon0.09_PT009H.grib2 2026-05-05 08:41 92K
20260505T06Z_MSC_RDPS_DownwardShortwaveRadiationFlux-Accum_Sfc_RLatLon0.09_PT009H.grib2 2026-05-05 08:41 371K
20260505T06Z_MSC_RDPS_FreezingRain-Accum1h_Sfc_RLatLon0.09_PT009H.grib2 2026-05-05 08:41 31K
20260505T06Z_MSC_RDPS_FreezingRain-Accum3h_Sfc_RLatLon0.09_PT009H.grib2 2026-05-05 08:41 36K
20260505T06Z_MSC_RDPS_FreezingRain-Accum_Sfc_RLatLon0.09_PT009H.grib2 2026-05-05 08:41 71K
20260505T06Z_MSC_RDPS_GeopotentialHeight_IsbL-0001_RLatLon0.09_PT009H.grib2 2026-05-05 08:41 354K
20260505T06Z_MSC_RDPS_GeopotentialHeight_IsbL-0005_RLatLon0.09_PT009H.grib2 2026-05-05 08:41 309K
20260505T06Z_MSC_RDPS_GeopotentialHeight_IsbL-0010_RLatLon0.09_PT009H.grib2 2026-05-05 08:41 309K
20260505T06Z_MSC_RDPS_GeopotentialHeight_IsbL-0020_RLatLon0.09_PT009H.grib2 2026-05-05 08:41 406K
20260505T06Z_MSC_RDPS_GeopotentialHeight_IsbL-0030_RLatLon0.09_PT009H.grib2 2026-05-05 08:41 408K
20260505T06Z_MSC_RDPS_GeopotentialHeight_IsbL-0050_RLatLon0.09_PT009H.grib2 2026-05-05 08:41 312K
20260505T06Z_MSC_RDPS_GeopotentialHeight_IsbL-0100_RLatLon0.09_PT009H.grib2 2026-05-05 08:41 287K
20260505T06Z_MSC_RDPS_GeopotentialHeight_IsbL-0150_RLatLon0.09_PT009H.grib2 2026-05-05 08:41 230K
20260505T06Z_MSC_RDPS_GeopotentialHeight_IsbL-0175_RLatLon0.09_PT009H.grib2 2026-05-05 08:41 232K
20260505T06Z_MSC_RDPS_GeopotentialHeight_IsbL-0200_RLatLon0.09_PT009H.grib2 2026-05-05 08:41 236K
20260505T06Z_MSC_RDPS_GeopotentialHeight_IsbL-0225_RLatLon0.09_PT009H.grib2 2026-05-05 08:41 237K
20260505T06Z_MSC_RDPS_GeopotentialHeight_IsbL-0250_RLatLon0.09_PT009H.grib2 2026-05-05 08:41 238K
20260505T06Z_MSC_RDPS_GeopotentialHeight_IsbL-0275_RLatLon0.09_PT009H.grib2 2026-05-05 08:41 237K
20260505T06Z_MSC_RDPS_GeopotentialHeight_IsbL-0300_RLatLon0.09_PT009H.grib2 2026-05-05 08:41 236K
20260505T06Z_MSC_RDPS_GeopotentialHeight_IsbL-0350_RLatLon0.09_PT009H.grib2 2026-05-05 08:41 233K
20260505T06Z_MSC_RDPS_GeopotentialHeight_IsbL-0400_RLatLon0.09_PT009H.grib2 2026-05-05 08:41 230K
20260505T06Z_MSC_RDPS_GeopotentialHeight_IsbL-0450_RLatLon0.09_PT009H.grib2 2026-05-05 08:41 301K
20260505T06Z_MSC_RDPS_GeopotentialHeight_IsbL-0500_RLatLon0.09_PT009H.grib2 2026-05-05 08:41 296K
20260505T06Z_MSC_RDPS_GeopotentialHeight_IsbL-0550_RLatLon0.09_PT009H.grib2 2026-05-05 08:41 293K
20260505T06Z_MSC_RDPS_GeopotentialHeight_IsbL-0600_RLatLon0.09_PT009H.grib2 2026-05-05 08:41 288K
20260505T06Z_MSC_RDPS_GeopotentialHeight_IsbL-0650_RLatLon0.09_PT009H.grib2 2026-05-05 08:41 259K
20260505T06Z_MSC_RDPS_GeopotentialHeight_IsbL-0700_RLatLon0.09_PT009H.grib2 2026-05-05 08:41 258K
20260505T06Z_MSC_RDPS_GeopotentialHeight_IsbL-0750_RLatLon0.09_PT009H.grib2 2026-05-05 08:41 345K
20260505T06Z_MSC_RDPS_GeopotentialHeight_IsbL-0800_RLatLon0.09_PT009H.grib2 2026-05-05 08:41 355K
20260505T06Z_MSC_RDPS_GeopotentialHeight_IsbL-0850_RLatLon0.09_PT009H.grib2 2026-05-05 08:41 365K
20260505T06Z_MSC_RDPS_GeopotentialHeight_IsbL-0875_RLatLon0.09_PT009H.grib2 2026-05-05 08:41 366K
20260505T06Z_MSC_RDPS_GeopotentialHeight_IsbL-0900_RLatLon0.09_PT009H.grib2 2026-05-05 08:41 370K
20260505T06Z_MSC_RDPS_GeopotentialHeight_IsbL-0925_RLatLon0.09_PT009H.grib2 2026-05-05 08:41 372K
20260505T06Z_MSC_RDPS_GeopotentialHeight_IsbL-0950_RLatLon0.09_PT009H.grib2 2026-05-05 08:41 288K
20260505T06Z_MSC_RDPS_GeopotentialHeight_IsbL-0970_RLatLon0.09_PT009H.grib2 2026-05-05 08:41 292K
20260505T06Z_MSC_RDPS_GeopotentialHeight_IsbL-0985_RLatLon0.09_PT009H.grib2 2026-05-05 08:41 299K
20260505T06Z_MSC_RDPS_GeopotentialHeight_IsbL-1000_RLatLon0.09_PT009H.grib2 2026-05-05 08:41 309K
20260505T06Z_MSC_RDPS_GeopotentialHeight_IsbL-1015_RLatLon0.09_PT009H.grib2 2026-05-05 08:41 321K
20260505T06Z_MSC_RDPS_Humidex_Sfc_RLatLon0.09_PT009H.grib2 2026-05-05 08:41 2.4M
20260505T06Z_MSC_RDPS_IcePellets-Accum1h_Sfc_RLatLon0.09_PT009H.grib2 2026-05-05 08:41 8.3K
20260505T06Z_MSC_RDPS_IcePellets-Accum3h_Sfc_RLatLon0.09_PT009H.grib2 2026-05-05 08:41 11K
20260505T06Z_MSC_RDPS_IcePellets-Accum_Sfc_RLatLon0.09_PT009H.grib2 2026-05-05 08:41 17K
20260505T06Z_MSC_RDPS_KIndex_Sfc_RLatLon0.09_PT009H.grib2 2026-05-05 08:41 2.4M
20260505T06Z_MSC_RDPS_LatentHeatNetFlux_Sfc_RLatLon0.09_PT009H.grib2 2026-05-05 08:41 390K
20260505T06Z_MSC_RDPS_LiftedIndex-MU-VT_IsbL-0500_RLatLon0.09_PT009H.grib2 2026-05-05 08:41 2.4M
20260505T06Z_MSC_RDPS_NetLongwaveRadiationFlux-Accum_Sfc_RLatLon0.09_PT009H.grib2 2026-05-05 08:41 571K
20260505T06Z_MSC_RDPS_NetShortwaveRadiationFlux-Accum_Sfc_RLatLon0.09_PT009H.grib2 2026-05-05 08:41 355K
20260505T06Z_MSC_RDPS_PlanetaryBoundaryLayerHeight_Sfc_RLatLon0.09_PT009H.grib2 2026-05-05 08:41 1.0M
20260505T06Z_MSC_RDPS_Precip-Accum1h_Sfc_RLatLon0.09_PT009H.grib2 2026-05-05 08:41 1.2M
20260505T06Z_MSC_RDPS_Precip-Accum3h_Sfc_RLatLon0.09_PT009H.grib2 2026-05-05 08:41 1.4M
20260505T06Z_MSC_RDPS_Precip-Accum_Sfc_RLatLon0.09_PT009H.grib2 2026-05-05 08:41 1.7M
20260505T06Z_MSC_RDPS_PrecipRate_Sfc_RLatLon0.09_PT009H.grib2 2026-05-05 08:41 182K
20260505T06Z_MSC_RDPS_PrecipType-Instant_Sfc_RLatLon0.09_PT009H.grib2 2026-05-05 08:41 589K
20260505T06Z_MSC_RDPS_Pressure-Trend3h_Sfc_RLatLon0.09_PT009H.grib2 2026-05-05 08:41 1.2M
20260505T06Z_MSC_RDPS_Pressure_MSL_RLatLon0.09_PT009H.grib2 2026-05-05 08:41 331K
20260505T06Z_MSC_RDPS_Pressure_PVU-1.5_RLatLon0.09_PT009H.grib2 2026-05-05 08:41 2.5M
20260505T06Z_MSC_RDPS_Pressure_PVU-1_RLatLon0.09_PT009H.grib2 2026-05-05 08:41 2.4M
20260505T06Z_MSC_RDPS_Pressure_PVU-2_RLatLon0.09_PT009H.grib2 2026-05-05 08:41 2.4M
20260505T06Z_MSC_RDPS_Pressure_Sfc_RLatLon0.09_PT009H.grib2 2026-05-05 08:41 500K
20260505T06Z_MSC_RDPS_RadiativeTemp_Sfc_RLatLon0.09_PT009H.grib2 2026-05-05 08:41 310K
20260505T06Z_MSC_RDPS_Rain-Accum1h_Sfc_RLatLon0.09_PT009H.grib2 2026-05-05 08:41 639K
20260505T06Z_MSC_RDPS_Rain-Accum3h_Sfc_RLatLon0.09_PT009H.grib2 2026-05-05 08:41 733K
20260505T06Z_MSC_RDPS_Rain-Accum_Sfc_RLatLon0.09_PT009H.grib2 2026-05-05 08:41 1.2M
20260505T06Z_MSC_RDPS_RelativeHumidity_AGL-2m_RLatLon0.09_PT009H.grib2 2026-05-05 08:41 1.0M
20260505T06Z_MSC_RDPS_RelativeHumidity_IsbL-0010_RLatLon0.09_PT009H.grib2 2026-05-05 08:41 707K
20260505T06Z_MSC_RDPS_RelativeHumidity_IsbL-0020_RLatLon0.09_PT009H.grib2 2026-05-05 08:41 670K
20260505T06Z_MSC_RDPS_RelativeHumidity_IsbL-0030_RLatLon0.09_PT009H.grib2 2026-05-05 08:41 601K
20260505T06Z_MSC_RDPS_RelativeHumidity_IsbL-0050_RLatLon0.09_PT009H.grib2 2026-05-05 08:41 359K
20260505T06Z_MSC_RDPS_RelativeHumidity_IsbL-0100_RLatLon0.09_PT009H.grib2 2026-05-05 08:41 281K
20260505T06Z_MSC_RDPS_RelativeHumidity_IsbL-0150_RLatLon0.09_PT009H.grib2 2026-05-05 08:41 411K
20260505T06Z_MSC_RDPS_RelativeHumidity_IsbL-0175_RLatLon0.09_PT009H.grib2 2026-05-05 08:41 480K
20260505T06Z_MSC_RDPS_RelativeHumidity_IsbL-0200_RLatLon0.09_PT009H.grib2 2026-05-05 08:41 555K
20260505T06Z_MSC_RDPS_RelativeHumidity_IsbL-0225_RLatLon0.09_PT009H.grib2 2026-05-05 08:41 610K
20260505T06Z_MSC_RDPS_RelativeHumidity_IsbL-0250_RLatLon0.09_PT009H.grib2 2026-05-05 08:41 672K
20260505T06Z_MSC_RDPS_RelativeHumidity_IsbL-0275_RLatLon0.09_PT009H.grib2 2026-05-05 08:41 699K
20260505T06Z_MSC_RDPS_RelativeHumidity_IsbL-0300_RLatLon0.09_PT009H.grib2 2026-05-05 08:41 743K
20260505T06Z_MSC_RDPS_RelativeHumidity_IsbL-0350_RLatLon0.09_PT009H.grib2 2026-05-05 08:41 769K
20260505T06Z_MSC_RDPS_RelativeHumidity_IsbL-0400_RLatLon0.09_PT009H.grib2 2026-05-05 08:41 780K
20260505T06Z_MSC_RDPS_RelativeHumidity_IsbL-0450_RLatLon0.09_PT009H.grib2 2026-05-05 08:41 787K
20260505T06Z_MSC_RDPS_RelativeHumidity_IsbL-0500_RLatLon0.09_PT009H.grib2 2026-05-05 08:41 800K
20260505T06Z_MSC_RDPS_RelativeHumidity_IsbL-0550_RLatLon0.09_PT009H.grib2 2026-05-05 08:41 813K
20260505T06Z_MSC_RDPS_RelativeHumidity_IsbL-0600_RLatLon0.09_PT009H.grib2 2026-05-05 08:41 826K
20260505T06Z_MSC_RDPS_RelativeHumidity_IsbL-0650_RLatLon0.09_PT009H.grib2 2026-05-05 08:41 841K
20260505T06Z_MSC_RDPS_RelativeHumidity_IsbL-0700_RLatLon0.09_PT009H.grib2 2026-05-05 08:41 873K
20260505T06Z_MSC_RDPS_RelativeHumidity_IsbL-0750_RLatLon0.09_PT009H.grib2 2026-05-05 08:41 921K
20260505T06Z_MSC_RDPS_RelativeHumidity_IsbL-0800_RLatLon0.09_PT009H.grib2 2026-05-05 08:41 1.0M
20260505T06Z_MSC_RDPS_RelativeHumidity_IsbL-0850_RLatLon0.09_PT009H.grib2 2026-05-05 08:41 1.0M
20260505T06Z_MSC_RDPS_RelativeHumidity_IsbL-0875_RLatLon0.09_PT009H.grib2 2026-05-05 08:41 1.1M
20260505T06Z_MSC_RDPS_RelativeHumidity_IsbL-0900_RLatLon0.09_PT009H.grib2 2026-05-05 08:41 1.1M
20260505T06Z_MSC_RDPS_RelativeHumidity_IsbL-0925_RLatLon0.09_PT009H.grib2 2026-05-05 08:41 1.1M
20260505T06Z_MSC_RDPS_RelativeHumidity_IsbL-0950_RLatLon0.09_PT009H.grib2 2026-05-05 08:41 1.1M
20260505T06Z_MSC_RDPS_RelativeHumidity_IsbL-0970_RLatLon0.09_PT009H.grib2 2026-05-05 08:41 1.1M
20260505T06Z_MSC_RDPS_RelativeHumidity_IsbL-0985_RLatLon0.09_PT009H.grib2 2026-05-05 08:41 1.1M
20260505T06Z_MSC_RDPS_RelativeHumidity_IsbL-1000_RLatLon0.09_PT009H.grib2 2026-05-05 08:41 1.0M
20260505T06Z_MSC_RDPS_RelativeHumidity_IsbL-1015_RLatLon0.09_PT009H.grib2 2026-05-05 08:41 1.0M
20260505T06Z_MSC_RDPS_Runoff-Accum_Sfc_RLatLon0.09_PT009H.grib2 2026-05-05 08:41 37K
20260505T06Z_MSC_RDPS_SWEATIndex_Sfc_RLatLon0.09_PT009H.grib2 2026-05-05 08:41 2.4M
20260505T06Z_MSC_RDPS_SeeingIndex_EAtm_RLatLon0.09_PT009H.grib2 2026-05-05 08:41 1.0M
20260505T06Z_MSC_RDPS_SensibleHeatNetFlux_Sfc_RLatLon0.09_PT009H.grib2 2026-05-05 08:41 361K
20260505T06Z_MSC_RDPS_ShowalterIndex_IsbL-0500_RLatLon0.09_PT009H.grib2 2026-05-05 08:41 2.6M
20260505T06Z_MSC_RDPS_SkyTransparencyIndex_EAtm_RLatLon0.09_PT009H.grib2 2026-05-05 08:41 690K
20260505T06Z_MSC_RDPS_Snow-Accum1h_Sfc_RLatLon0.09_PT009H.grib2 2026-05-05 08:41 443K
20260505T06Z_MSC_RDPS_Snow-Accum3h_Sfc_RLatLon0.09_PT009H.grib2 2026-05-05 08:41 452K
20260505T06Z_MSC_RDPS_Snow-Accum_Sfc_RLatLon0.09_PT009H.grib2 2026-05-05 08:41 587K
20260505T06Z_MSC_RDPS_SnowDensity_Sfc_RLatLon0.09_PT009H.grib2 2026-05-05 08:41 171K
20260505T06Z_MSC_RDPS_SnowDepth_Sfc_RLatLon0.09_PT009H.grib2 2026-05-05 08:41 650K
20260505T06Z_MSC_RDPS_SoilTemp_DBS-0to10cm_RLatLon0.09_PT009H.grib2 2026-05-05 08:41 205K
20260505T06Z_MSC_RDPS_SoilTemp_Sfc_RLatLon0.09_PT009H.grib2 2026-05-05 08:41 282K
20260505T06Z_MSC_RDPS_SoilVolumetricIceContent_Sfc_RLatLon0.09_PT009H.grib2 2026-05-05 08:41 153K
20260505T06Z_MSC_RDPS_SoilVolumetricWaterContent_DBS-0to10cm_RLatLon0.09_PT009H.grib2 2026-05-05 08:41 277K
20260505T06Z_MSC_RDPS_SoilVolumetricWaterContent_DBS-0to1cm_RLatLon0.09_PT009H.grib2 2026-05-05 08:41 337K
20260505T06Z_MSC_RDPS_SpecificHumidity_AGL-120m_RLatLon0.09_PT009H.grib2 2026-05-05 08:41 499K
20260505T06Z_MSC_RDPS_SpecificHumidity_AGL-2m_RLatLon0.09_PT009H.grib2 2026-05-05 08:41 669K
20260505T06Z_MSC_RDPS_SpecificHumidity_AGL-40m_RLatLon0.09_PT009H.grib2 2026-05-05 08:41 505K
20260505T06Z_MSC_RDPS_SpecificHumidity_AGL-80m_RLatLon0.09_PT009H.grib2 2026-05-05 08:41 501K
20260505T06Z_MSC_RDPS_SpecificHumidity_IsbL-0001_RLatLon0.09_PT009H.grib2 2026-05-05 08:41 303K
20260505T06Z_MSC_RDPS_SpecificHumidity_IsbL-0005_RLatLon0.09_PT009H.grib2 2026-05-05 08:41 369K
20260505T06Z_MSC_RDPS_SpecificHumidity_IsbL-0010_RLatLon0.09_PT009H.grib2 2026-05-05 08:41 401K
20260505T06Z_MSC_RDPS_SpecificHumidity_IsbL-0020_RLatLon0.09_PT009H.grib2 2026-05-05 08:41 385K
20260505T06Z_MSC_RDPS_SpecificHumidity_IsbL-0030_RLatLon0.09_PT009H.grib2 2026-05-05 08:41 377K
20260505T06Z_MSC_RDPS_SpecificHumidity_IsbL-0050_RLatLon0.09_PT009H.grib2 2026-05-05 08:41 374K
20260505T06Z_MSC_RDPS_SpecificHumidity_IsbL-0100_RLatLon0.09_PT009H.grib2 2026-05-05 08:41 531K
20260505T06Z_MSC_RDPS_SpecificHumidity_IsbL-0150_RLatLon0.09_PT009H.grib2 2026-05-05 08:41 448K
20260505T06Z_MSC_RDPS_SpecificHumidity_IsbL-0175_RLatLon0.09_PT009H.grib2 2026-05-05 08:41 444K
20260505T06Z_MSC_RDPS_SpecificHumidity_IsbL-0200_RLatLon0.09_PT009H.grib2 2026-05-05 08:41 461K
20260505T06Z_MSC_RDPS_SpecificHumidity_IsbL-0225_RLatLon0.09_PT009H.grib2 2026-05-05 08:41 455K
20260505T06Z_MSC_RDPS_SpecificHumidity_IsbL-0250_RLatLon0.09_PT009H.grib2 2026-05-05 08:41 558K
20260505T06Z_MSC_RDPS_SpecificHumidity_IsbL-0275_RLatLon0.09_PT009H.grib2 2026-05-05 08:41 476K
20260505T06Z_MSC_RDPS_SpecificHumidity_IsbL-0300_RLatLon0.09_PT009H.grib2 2026-05-05 08:41 549K
20260505T06Z_MSC_RDPS_SpecificHumidity_IsbL-0350_RLatLon0.09_PT009H.grib2 2026-05-05 08:41 542K
20260505T06Z_MSC_RDPS_SpecificHumidity_IsbL-0400_RLatLon0.09_PT009H.grib2 2026-05-05 08:41 520K
20260505T06Z_MSC_RDPS_SpecificHumidity_IsbL-0450_RLatLon0.09_PT009H.grib2 2026-05-05 08:41 571K
20260505T06Z_MSC_RDPS_SpecificHumidity_IsbL-0500_RLatLon0.09_PT009H.grib2 2026-05-05 08:41 503K
20260505T06Z_MSC_RDPS_SpecificHumidity_IsbL-0550_RLatLon0.09_PT009H.grib2 2026-05-05 08:41 553K
20260505T06Z_MSC_RDPS_SpecificHumidity_IsbL-0600_RLatLon0.09_PT009H.grib2 2026-05-05 08:41 616K
20260505T06Z_MSC_RDPS_SpecificHumidity_IsbL-0650_RLatLon0.09_PT009H.grib2 2026-05-05 08:41 531K
20260505T06Z_MSC_RDPS_SpecificHumidity_IsbL-0700_RLatLon0.09_PT009H.grib2 2026-05-05 08:41 581K
20260505T06Z_MSC_RDPS_SpecificHumidity_IsbL-0750_RLatLon0.09_PT009H.grib2 2026-05-05 08:41 641K
20260505T06Z_MSC_RDPS_SpecificHumidity_IsbL-0800_RLatLon0.09_PT009H.grib2 2026-05-05 08:41 726K
20260505T06Z_MSC_RDPS_SpecificHumidity_IsbL-0850_RLatLon0.09_PT009H.grib2 2026-05-05 08:41 809K
20260505T06Z_MSC_RDPS_SpecificHumidity_IsbL-0875_RLatLon0.09_PT009H.grib2 2026-05-05 08:41 835K
20260505T06Z_MSC_RDPS_SpecificHumidity_IsbL-0900_RLatLon0.09_PT009H.grib2 2026-05-05 08:41 846K
20260505T06Z_MSC_RDPS_SpecificHumidity_IsbL-0925_RLatLon0.09_PT009H.grib2 2026-05-05 08:41 848K
20260505T06Z_MSC_RDPS_SpecificHumidity_IsbL-0950_RLatLon0.09_PT009H.grib2 2026-05-05 08:41 848K
20260505T06Z_MSC_RDPS_SpecificHumidity_IsbL-0970_RLatLon0.09_PT009H.grib2 2026-05-05 08:41 704K
20260505T06Z_MSC_RDPS_SpecificHumidity_IsbL-0985_RLatLon0.09_PT009H.grib2 2026-05-05 08:41 700K
20260505T06Z_MSC_RDPS_SpecificHumidity_IsbL-1000_RLatLon0.09_PT009H.grib2 2026-05-05 08:41 694K
20260505T06Z_MSC_RDPS_SpecificHumidity_IsbL-1015_RLatLon0.09_PT009H.grib2 2026-05-05 08:41 686K
20260505T06Z_MSC_RDPS_SpecificHumidity_Sfc_RLatLon0.09_PT009H.grib2 2026-05-05 08:41 315K
20260505T06Z_MSC_RDPS_StormRelativeHelicity_EtaL-10000_RLatLon0.09_PT009H.grib2 2026-05-05 08:41 1.1M
20260505T06Z_MSC_RDPS_StormSeverityIndex_EtaL-10000_RLatLon0.09_PT009H.grib2 2026-05-05 08:41 1.2M
20260505T06Z_MSC_RDPS_Thickness_IsbL-0850to0700_RLatLon0.09_PT009H.grib2 2026-05-05 08:41 179K
20260505T06Z_MSC_RDPS_Thickness_IsbL-1000to0500_RLatLon0.09_PT009H.grib2 2026-05-05 08:41 201K
20260505T06Z_MSC_RDPS_Thickness_IsbL-1000to0850_RLatLon0.09_PT009H.grib2 2026-05-05 08:41 267K
20260505T06Z_MSC_RDPS_TotalCloudCover_Sfc_RLatLon0.09_PT009H.grib2 2026-05-05 08:41 650K
20260505T06Z_MSC_RDPS_TotalTotalsIndex_Sfc_RLatLon0.09_PT009H.grib2 2026-05-05 08:41 2.4M
20260505T06Z_MSC_RDPS_UVIndex-ClearSky_Sfc_RLatLon0.09_PT009H.grib2 2026-05-05 08:41 182K
20260505T06Z_MSC_RDPS_UVIndex_Sfc_RLatLon0.09_PT009H.grib2 2026-05-05 08:41 429K
20260505T06Z_MSC_RDPS_UpwardLongwaveRadiationFlux_NTAtm_RLatLon0.09_PT009H.grib2 2026-05-05 08:41 485K
20260505T06Z_MSC_RDPS_UpwardShortwaveRadiationFlux_NTAtm_RLatLon0.09_PT009H.grib2 2026-05-05 08:41 476K
20260505T06Z_MSC_RDPS_VerticalVelocity_IsbL-0250_RLatLon0.09_PT009H.grib2 2026-05-05 08:41 435K
20260505T06Z_MSC_RDPS_VerticalVelocity_IsbL-0500_RLatLon0.09_PT009H.grib2 2026-05-05 08:41 553K
20260505T06Z_MSC_RDPS_VerticalVelocity_IsbL-0700_RLatLon0.09_PT009H.grib2 2026-05-05 08:41 557K
20260505T06Z_MSC_RDPS_VerticalVelocity_IsbL-0850_RLatLon0.09_PT009H.grib2 2026-05-05 08:41 709K
20260505T06Z_MSC_RDPS_VerticalWindShear_EtaL-6500_RLatLon0.09_PT009H.grib2 2026-05-05 08:41 1.2M
20260505T06Z_MSC_RDPS_WindChill_Sfc_RLatLon0.09_PT009H.grib2 2026-05-05 08:41 1.2M
20260505T06Z_MSC_RDPS_WindDir_AGL-10m_RLatLon0.09_PT009H.grib2 2026-05-05 08:41 960K
20260505T06Z_MSC_RDPS_WindDir_AGL-120m_RLatLon0.09_PT009H.grib2 2026-05-05 08:41 604K
20260505T06Z_MSC_RDPS_WindDir_AGL-40m_RLatLon0.09_PT009H.grib2 2026-05-05 08:41 627K
20260505T06Z_MSC_RDPS_WindDir_AGL-80m_RLatLon0.09_PT009H.grib2 2026-05-05 08:41 614K
20260505T06Z_MSC_RDPS_WindDir_IsbL-0001_RLatLon0.09_PT009H.grib2 2026-05-05 08:41 316K
20260505T06Z_MSC_RDPS_WindDir_IsbL-0005_RLatLon0.09_PT009H.grib2 2026-05-05 08:41 382K
20260505T06Z_MSC_RDPS_WindDir_IsbL-0010_RLatLon0.09_PT009H.grib2 2026-05-05 08:41 385K
20260505T06Z_MSC_RDPS_WindDir_IsbL-0020_RLatLon0.09_PT009H.grib2 2026-05-05 08:41 408K
20260505T06Z_MSC_RDPS_WindDir_IsbL-0030_RLatLon0.09_PT009H.grib2 2026-05-05 08:41 416K
20260505T06Z_MSC_RDPS_WindDir_IsbL-0050_RLatLon0.09_PT009H.grib2 2026-05-05 08:41 420K
20260505T06Z_MSC_RDPS_WindDir_IsbL-0100_RLatLon0.09_PT009H.grib2 2026-05-05 08:41 420K
20260505T06Z_MSC_RDPS_WindDir_IsbL-0150_RLatLon0.09_PT009H.grib2 2026-05-05 08:41 420K
20260505T06Z_MSC_RDPS_WindDir_IsbL-0175_RLatLon0.09_PT009H.grib2 2026-05-05 08:41 443K
20260505T06Z_MSC_RDPS_WindDir_IsbL-0200_RLatLon0.09_PT009H.grib2 2026-05-05 08:41 456K
20260505T06Z_MSC_RDPS_WindDir_IsbL-0225_RLatLon0.09_PT009H.grib2 2026-05-05 08:41 454K
20260505T06Z_MSC_RDPS_WindDir_IsbL-0250_RLatLon0.09_PT009H.grib2 2026-05-05 08:41 454K
20260505T06Z_MSC_RDPS_WindDir_IsbL-0275_RLatLon0.09_PT009H.grib2 2026-05-05 08:41 473K
20260505T06Z_MSC_RDPS_WindDir_IsbL-0300_RLatLon0.09_PT009H.grib2 2026-05-05 08:41 471K
20260505T06Z_MSC_RDPS_WindDir_IsbL-0350_RLatLon0.09_PT009H.grib2 2026-05-05 08:41 497K
20260505T06Z_MSC_RDPS_WindDir_IsbL-0400_RLatLon0.09_PT009H.grib2 2026-05-05 08:41 508K
20260505T06Z_MSC_RDPS_WindDir_IsbL-0450_RLatLon0.09_PT009H.grib2 2026-05-05 08:41 528K
20260505T06Z_MSC_RDPS_WindDir_IsbL-0500_RLatLon0.09_PT009H.grib2 2026-05-05 08:41 535K
20260505T06Z_MSC_RDPS_WindDir_IsbL-0550_RLatLon0.09_PT009H.grib2 2026-05-05 08:41 553K
20260505T06Z_MSC_RDPS_WindDir_IsbL-0600_RLatLon0.09_PT009H.grib2 2026-05-05 08:41 574K
20260505T06Z_MSC_RDPS_WindDir_IsbL-0650_RLatLon0.09_PT009H.grib2 2026-05-05 08:41 617K
20260505T06Z_MSC_RDPS_WindDir_IsbL-0700_RLatLon0.09_PT009H.grib2 2026-05-05 08:41 668K
20260505T06Z_MSC_RDPS_WindDir_IsbL-0750_RLatLon0.09_PT009H.grib2 2026-05-05 08:41 720K
20260505T06Z_MSC_RDPS_WindDir_IsbL-0800_RLatLon0.09_PT009H.grib2 2026-05-05 08:41 783K
20260505T06Z_MSC_RDPS_WindDir_IsbL-0850_RLatLon0.09_PT009H.grib2 2026-05-05 08:41 866K
20260505T06Z_MSC_RDPS_WindDir_IsbL-0875_RLatLon0.09_PT009H.grib2 2026-05-05 08:41 893K
20260505T06Z_MSC_RDPS_WindDir_IsbL-0900_RLatLon0.09_PT009H.grib2 2026-05-05 08:41 903K
20260505T06Z_MSC_RDPS_WindDir_IsbL-0925_RLatLon0.09_PT009H.grib2 2026-05-05 08:41 908K
20260505T06Z_MSC_RDPS_WindDir_IsbL-0950_RLatLon0.09_PT009H.grib2 2026-05-05 08:41 904K
20260505T06Z_MSC_RDPS_WindDir_IsbL-0970_RLatLon0.09_PT009H.grib2 2026-05-05 08:41 909K
20260505T06Z_MSC_RDPS_WindDir_IsbL-0985_RLatLon0.09_PT009H.grib2 2026-05-05 08:41 918K
20260505T06Z_MSC_RDPS_WindDir_IsbL-1000_RLatLon0.09_PT009H.grib2 2026-05-05 08:41 932K
20260505T06Z_MSC_RDPS_WindDir_IsbL-1015_RLatLon0.09_PT009H.grib2 2026-05-05 08:41 950K
20260505T06Z_MSC_RDPS_WindGust-Max_AGL-10m_RLatLon0.09_PT009H.grib2 2026-05-05 08:41 951K
20260505T06Z_MSC_RDPS_WindGust-Min_AGL-10m_RLatLon0.09_PT009H.grib2 2026-05-05 08:41 1.0M
20260505T06Z_MSC_RDPS_WindGust_AGL-10m_RLatLon0.09_PT009H.grib2 2026-05-05 08:41 1.0M
20260505T06Z_MSC_RDPS_WindSpeed_AGL-10m_RLatLon0.09_PT009H.grib2 2026-05-05 08:41 853K
20260505T06Z_MSC_RDPS_WindSpeed_AGL-120m_RLatLon0.09_PT009H.grib2 2026-05-05 08:41 546K
20260505T06Z_MSC_RDPS_WindSpeed_AGL-40m_RLatLon0.09_PT009H.grib2 2026-05-05 08:41 551K
20260505T06Z_MSC_RDPS_WindSpeed_AGL-80m_RLatLon0.09_PT009H.grib2 2026-05-05 08:41 547K
20260505T06Z_MSC_RDPS_WindSpeed_IsbL-0001_RLatLon0.09_PT009H.grib2 2026-05-05 08:41 253K
20260505T06Z_MSC_RDPS_WindSpeed_IsbL-0005_RLatLon0.09_PT009H.grib2 2026-05-05 08:41 377K
20260505T06Z_MSC_RDPS_WindSpeed_IsbL-0010_RLatLon0.09_PT009H.grib2 2026-05-05 08:41 390K
20260505T06Z_MSC_RDPS_WindSpeed_IsbL-0020_RLatLon0.09_PT009H.grib2 2026-05-05 08:41 410K
20260505T06Z_MSC_RDPS_WindSpeed_IsbL-0030_RLatLon0.09_PT009H.grib2 2026-05-05 08:41 317K
20260505T06Z_MSC_RDPS_WindSpeed_IsbL-0050_RLatLon0.09_PT009H.grib2 2026-05-05 08:41 349K
20260505T06Z_MSC_RDPS_WindSpeed_IsbL-0100_RLatLon0.09_PT009H.grib2 2026-05-05 08:41 474K
20260505T06Z_MSC_RDPS_WindSpeed_IsbL-0150_RLatLon0.09_PT009H.grib2 2026-05-05 08:41 378K
20260505T06Z_MSC_RDPS_WindSpeed_IsbL-0175_RLatLon0.09_PT009H.grib2 2026-05-05 08:41 426K
20260505T06Z_MSC_RDPS_WindSpeed_IsbL-0200_RLatLon0.09_PT009H.grib2 2026-05-05 08:41 438K
20260505T06Z_MSC_RDPS_WindSpeed_IsbL-0225_RLatLon0.09_PT009H.grib2 2026-05-05 08:41 441K
20260505T06Z_MSC_RDPS_WindSpeed_IsbL-0250_RLatLon0.09_PT009H.grib2 2026-05-05 08:41 444K
20260505T06Z_MSC_RDPS_WindSpeed_IsbL-0275_RLatLon0.09_PT009H.grib2 2026-05-05 08:41 461K
20260505T06Z_MSC_RDPS_WindSpeed_IsbL-0300_RLatLon0.09_PT009H.grib2 2026-05-05 08:41 462K
20260505T06Z_MSC_RDPS_WindSpeed_IsbL-0350_RLatLon0.09_PT009H.grib2 2026-05-05 08:41 475K
20260505T06Z_MSC_RDPS_WindSpeed_IsbL-0400_RLatLon0.09_PT009H.grib2 2026-05-05 08:41 479K
20260505T06Z_MSC_RDPS_WindSpeed_IsbL-0450_RLatLon0.09_PT009H.grib2 2026-05-05 08:41 465K
20260505T06Z_MSC_RDPS_WindSpeed_IsbL-0500_RLatLon0.09_PT009H.grib2 2026-05-05 08:41 466K
20260505T06Z_MSC_RDPS_WindSpeed_IsbL-0550_RLatLon0.09_PT009H.grib2 2026-05-05 08:41 464K
20260505T06Z_MSC_RDPS_WindSpeed_IsbL-0600_RLatLon0.09_PT009H.grib2 2026-05-05 08:41 590K
20260505T06Z_MSC_RDPS_WindSpeed_IsbL-0650_RLatLon0.09_PT009H.grib2 2026-05-05 08:41 609K
20260505T06Z_MSC_RDPS_WindSpeed_IsbL-0700_RLatLon0.09_PT009H.grib2 2026-05-05 08:41 635K
20260505T06Z_MSC_RDPS_WindSpeed_IsbL-0750_RLatLon0.09_PT009H.grib2 2026-05-05 08:41 669K
20260505T06Z_MSC_RDPS_WindSpeed_IsbL-0800_RLatLon0.09_PT009H.grib2 2026-05-05 08:41 720K
20260505T06Z_MSC_RDPS_WindSpeed_IsbL-0850_RLatLon0.09_PT009H.grib2 2026-05-05 08:41 833K
20260505T06Z_MSC_RDPS_WindSpeed_IsbL-0875_RLatLon0.09_PT009H.grib2 2026-05-05 08:41 855K
20260505T06Z_MSC_RDPS_WindSpeed_IsbL-0900_RLatLon0.09_PT009H.grib2 2026-05-05 08:41 866K
20260505T06Z_MSC_RDPS_WindSpeed_IsbL-0925_RLatLon0.09_PT009H.grib2 2026-05-05 08:41 876K
20260505T06Z_MSC_RDPS_WindSpeed_IsbL-0950_RLatLon0.09_PT009H.grib2 2026-05-05 08:41 874K
20260505T06Z_MSC_RDPS_WindSpeed_IsbL-0970_RLatLon0.09_PT009H.grib2 2026-05-05 08:41 871K
20260505T06Z_MSC_RDPS_WindSpeed_IsbL-0985_RLatLon0.09_PT009H.grib2 2026-05-05 08:41 867K
20260505T06Z_MSC_RDPS_WindSpeed_IsbL-1000_RLatLon0.09_PT009H.grib2 2026-05-05 08:41 859K
20260505T06Z_MSC_RDPS_WindSpeed_IsbL-1015_RLatLon0.09_PT009H.grib2 2026-05-05 08:41 853K
20260505T06Z_MSC_RDPS_WindU_AGL-10m_RLatLon0.09_PT009H.grib2 2026-05-05 08:41 438K
20260505T06Z_MSC_RDPS_WindU_AGL-120m_RLatLon0.09_PT009H.grib2 2026-05-05 08:41 423K
20260505T06Z_MSC_RDPS_WindU_AGL-40m_RLatLon0.09_PT009H.grib2 2026-05-05 08:41 543K
20260505T06Z_MSC_RDPS_WindU_AGL-80m_RLatLon0.09_PT009H.grib2 2026-05-05 08:41 542K
20260505T06Z_MSC_RDPS_WindU_IsbL-0001_RLatLon0.09_PT009H.grib2 2026-05-05 08:41 291K
20260505T06Z_MSC_RDPS_WindU_IsbL-0005_RLatLon0.09_PT009H.grib2 2026-05-05 08:41 278K
20260505T06Z_MSC_RDPS_WindU_IsbL-0010_RLatLon0.09_PT009H.grib2 2026-05-05 08:41 288K
20260505T06Z_MSC_RDPS_WindU_IsbL-0020_RLatLon0.09_PT009H.grib2 2026-05-05 08:41 305K
20260505T06Z_MSC_RDPS_WindU_IsbL-0030_RLatLon0.09_PT009H.grib2 2026-05-05 08:41 308K
20260505T06Z_MSC_RDPS_WindU_IsbL-0050_RLatLon0.09_PT009H.grib2 2026-05-05 08:41 345K
20260505T06Z_MSC_RDPS_WindU_IsbL-0100_RLatLon0.09_PT009H.grib2 2026-05-05 08:41 334K
20260505T06Z_MSC_RDPS_WindU_IsbL-0150_RLatLon0.09_PT009H.grib2 2026-05-05 08:41 394K
20260505T06Z_MSC_RDPS_WindU_IsbL-0175_RLatLon0.09_PT009H.grib2 2026-05-05 08:41 325K
20260505T06Z_MSC_RDPS_WindU_IsbL-0200_RLatLon0.09_PT009H.grib2 2026-05-05 08:41 335K
20260505T06Z_MSC_RDPS_WindU_IsbL-0225_RLatLon0.09_PT009H.grib2 2026-05-05 08:41 336K
20260505T06Z_MSC_RDPS_WindU_IsbL-0250_RLatLon0.09_PT009H.grib2 2026-05-05 08:41 337K
20260505T06Z_MSC_RDPS_WindU_IsbL-0275_RLatLon0.09_PT009H.grib2 2026-05-05 08:41 351K
20260505T06Z_MSC_RDPS_WindU_IsbL-0300_RLatLon0.09_PT009H.grib2 2026-05-05 08:41 349K
20260505T06Z_MSC_RDPS_WindU_IsbL-0350_RLatLon0.09_PT009H.grib2 2026-05-05 08:41 360K
20260505T06Z_MSC_RDPS_WindU_IsbL-0400_RLatLon0.09_PT009H.grib2 2026-05-05 08:41 364K
20260505T06Z_MSC_RDPS_WindU_IsbL-0450_RLatLon0.09_PT009H.grib2 2026-05-05 08:41 469K
20260505T06Z_MSC_RDPS_WindU_IsbL-0500_RLatLon0.09_PT009H.grib2 2026-05-05 08:41 471K
20260505T06Z_MSC_RDPS_WindU_IsbL-0550_RLatLon0.09_PT009H.grib2 2026-05-05 08:41 470K
20260505T06Z_MSC_RDPS_WindU_IsbL-0600_RLatLon0.09_PT009H.grib2 2026-05-05 08:41 478K
20260505T06Z_MSC_RDPS_WindU_IsbL-0650_RLatLon0.09_PT009H.grib2 2026-05-05 08:41 497K
20260505T06Z_MSC_RDPS_WindU_IsbL-0700_RLatLon0.09_PT009H.grib2 2026-05-05 08:41 504K
20260505T06Z_MSC_RDPS_WindU_IsbL-0750_RLatLon0.09_PT009H.grib2 2026-05-05 08:41 533K
20260505T06Z_MSC_RDPS_WindU_IsbL-0800_RLatLon0.09_PT009H.grib2 2026-05-05 08:41 579K
20260505T06Z_MSC_RDPS_WindU_IsbL-0850_RLatLon0.09_PT009H.grib2 2026-05-05 08:41 637K
20260505T06Z_MSC_RDPS_WindU_IsbL-0875_RLatLon0.09_PT009H.grib2 2026-05-05 08:41 656K
20260505T06Z_MSC_RDPS_WindU_IsbL-0900_RLatLon0.09_PT009H.grib2 2026-05-05 08:41 665K
20260505T06Z_MSC_RDPS_WindU_IsbL-0925_RLatLon0.09_PT009H.grib2 2026-05-05 08:41 670K
20260505T06Z_MSC_RDPS_WindU_IsbL-0950_RLatLon0.09_PT009H.grib2 2026-05-05 08:41 664K
20260505T06Z_MSC_RDPS_WindU_IsbL-0970_RLatLon0.09_PT009H.grib2 2026-05-05 08:41 660K
20260505T06Z_MSC_RDPS_WindU_IsbL-0985_RLatLon0.09_PT009H.grib2 2026-05-05 08:41 795K
20260505T06Z_MSC_RDPS_WindU_IsbL-1000_RLatLon0.09_PT009H.grib2 2026-05-05 08:41 792K
20260505T06Z_MSC_RDPS_WindU_IsbL-1015_RLatLon0.09_PT009H.grib2 2026-05-05 08:41 789K
20260505T06Z_MSC_RDPS_WindV_AGL-10m_RLatLon0.09_PT009H.grib2 2026-05-05 08:41 441K
20260505T06Z_MSC_RDPS_WindV_AGL-120m_RLatLon0.09_PT009H.grib2 2026-05-05 08:41 424K
20260505T06Z_MSC_RDPS_WindV_AGL-40m_RLatLon0.09_PT009H.grib2 2026-05-05 08:41 545K
20260505T06Z_MSC_RDPS_WindV_AGL-80m_RLatLon0.09_PT009H.grib2 2026-05-05 08:41 425K
20260505T06Z_MSC_RDPS_WindV_IsbL-0001_RLatLon0.09_PT009H.grib2 2026-05-05 08:41 245K
20260505T06Z_MSC_RDPS_WindV_IsbL-0005_RLatLon0.09_PT009H.grib2 2026-05-05 08:41 281K
20260505T06Z_MSC_RDPS_WindV_IsbL-0010_RLatLon0.09_PT009H.grib2 2026-05-05 08:41 291K
20260505T06Z_MSC_RDPS_WindV_IsbL-0020_RLatLon0.09_PT009H.grib2 2026-05-05 08:41 307K
20260505T06Z_MSC_RDPS_WindV_IsbL-0030_RLatLon0.09_PT009H.grib2 2026-05-05 08:41 348K
20260505T06Z_MSC_RDPS_WindV_IsbL-0050_RLatLon0.09_PT009H.grib2 2026-05-05 08:41 341K
20260505T06Z_MSC_RDPS_WindV_IsbL-0100_RLatLon0.09_PT009H.grib2 2026-05-05 08:41 332K
20260505T06Z_MSC_RDPS_WindV_IsbL-0150_RLatLon0.09_PT009H.grib2 2026-05-05 08:41 393K
20260505T06Z_MSC_RDPS_WindV_IsbL-0175_RLatLon0.09_PT009H.grib2 2026-05-05 08:41 322K
20260505T06Z_MSC_RDPS_WindV_IsbL-0200_RLatLon0.09_PT009H.grib2 2026-05-05 08:41 333K
20260505T06Z_MSC_RDPS_WindV_IsbL-0225_RLatLon0.09_PT009H.grib2 2026-05-05 08:41 335K
20260505T06Z_MSC_RDPS_WindV_IsbL-0250_RLatLon0.09_PT009H.grib2 2026-05-05 08:41 363K
20260505T06Z_MSC_RDPS_WindV_IsbL-0275_RLatLon0.09_PT009H.grib2 2026-05-05 08:41 376K
20260505T06Z_MSC_RDPS_WindV_IsbL-0300_RLatLon0.09_PT009H.grib2 2026-05-05 08:41 349K
20260505T06Z_MSC_RDPS_WindV_IsbL-0350_RLatLon0.09_PT009H.grib2 2026-05-05 08:41 359K
20260505T06Z_MSC_RDPS_WindV_IsbL-0400_RLatLon0.09_PT009H.grib2 2026-05-05 08:41 363K
20260505T06Z_MSC_RDPS_WindV_IsbL-0450_RLatLon0.09_PT009H.grib2 2026-05-05 08:41 365K
20260505T06Z_MSC_RDPS_WindV_IsbL-0500_RLatLon0.09_PT009H.grib2 2026-05-05 08:41 469K
20260505T06Z_MSC_RDPS_WindV_IsbL-0550_RLatLon0.09_PT009H.grib2 2026-05-05 08:41 470K
20260505T06Z_MSC_RDPS_WindV_IsbL-0600_RLatLon0.09_PT009H.grib2 2026-05-05 08:41 477K
20260505T06Z_MSC_RDPS_WindV_IsbL-0650_RLatLon0.09_PT009H.grib2 2026-05-05 08:41 493K
20260505T06Z_MSC_RDPS_WindV_IsbL-0700_RLatLon0.09_PT009H.grib2 2026-05-05 08:41 515K
20260505T06Z_MSC_RDPS_WindV_IsbL-0750_RLatLon0.09_PT009H.grib2 2026-05-05 08:41 543K
20260505T06Z_MSC_RDPS_WindV_IsbL-0800_RLatLon0.09_PT009H.grib2 2026-05-05 08:41 585K
20260505T06Z_MSC_RDPS_WindV_IsbL-0850_RLatLon0.09_PT009H.grib2 2026-05-05 08:41 632K
20260505T06Z_MSC_RDPS_WindV_IsbL-0875_RLatLon0.09_PT009H.grib2 2026-05-05 08:41 652K
20260505T06Z_MSC_RDPS_WindV_IsbL-0900_RLatLon0.09_PT009H.grib2 2026-05-05 08:41 661K
20260505T06Z_MSC_RDPS_WindV_IsbL-0925_RLatLon0.09_PT009H.grib2 2026-05-05 08:41 667K
20260505T06Z_MSC_RDPS_WindV_IsbL-0950_RLatLon0.09_PT009H.grib2 2026-05-05 08:41 663K
20260505T06Z_MSC_RDPS_WindV_IsbL-0970_RLatLon0.09_PT009H.grib2 2026-05-05 08:41 661K
20260505T06Z_MSC_RDPS_WindV_IsbL-0985_RLatLon0.09_PT009H.grib2 2026-05-05 08:41 659K
20260505T06Z_MSC_RDPS_WindV_IsbL-1000_RLatLon0.09_PT009H.grib2 2026-05-05 08:41 796K
20260505T06Z_MSC_RDPS_WindV_IsbL-1015_RLatLon0.09_PT009H.grib2 2026-05-05 08:41 791K